When you browse on this site, cookies collect data to enhance your experience and personalize the content and advertising you see.
Visit our Privacy Policy to learn more. By continuing to use the site, you agree to this use of cookies and data.
  • In United Kingdom
  • List of Countries
  • For 7 days
  • Water Temperature
  • Weather Map
  • Weather Widgets
  • user-avatar
    Login

    Hourly Weather Middlesbrough

    Today, 21 February, Friday

    Time Temperature Precipitation Wind Pressure Humidity
    00:00 +1°C° 0 mm 8 mps 758 mmHg 81%
    01:00 +1°C° 0 mm 8 mps 758 mmHg 81%
    02:00 +1°C° 0 mm 8 mps 758 mmHg 80%
    03:00 +2°C° 0 mm 8 mps 758 mmHg 80%
    04:00 +2°C° 0 mm 9 mps 758 mmHg 82%
    05:00 +2°C° 0 mm 9 mps 758 mmHg 84%
    06:00 +2°C° 0 mm 10 mps 758 mmHg 86%
    13:00 +7°C° 0.1 mm 11 mps 755 mmHg 81%
    14:00 +7°C° 0.1 mm 11 mps 754 mmHg 82%
    15:00 +7°C° 0.1 mm 11 mps 754 mmHg 83%
    16:00 +7°C° 0.2 mm 11 mps 754 mmHg 83%
    17:00 +7°C° 0.2 mm 11 mps 753 mmHg 84%
    18:00 +7°C° 0.2 mm 12 mps 753 mmHg 84%
    19:00 +8°C° 0.4 mm 12 mps 752 mmHg 85%
    20:00 +8°C° 0.4 mm 12 mps 751 mmHg 85%
    21:00 +8°C° 0.4 mm 13 mps 751 mmHg 85%
    22:00 +8°C° 0.3 mm 12 mps 750 mmHg 85%
    23:00 +9°C° 0.3 mm 12 mps 750 mmHg 84%

    Tomorrow, 22 February, Saturday

    Time Temperature Precipitation Wind Pressure Humidity
    00:00 +9°C° 0.3 mm 12 mps 749 mmHg 83%
    01:00 +9°C° 0.5 mm 12 mps 749 mmHg 83%
    02:00 +8°C° 0.5 mm 12 mps 748 mmHg 83%
    03:00 +8°C° 0.5 mm 12 mps 748 mmHg 83%
    04:00 +7°C° 0.4 mm 12 mps 749 mmHg 82%
    05:00 +4°C° 0.4 mm 11 mps 749 mmHg 82%
    06:00 +3°C° 0.4 mm 11 mps 750 mmHg 82%
    07:00 +3°C° 0.2 mm 11 mps 751 mmHg 79%
    08:00 +3°C° 0.2 mm 12 mps 751 mmHg 76%
    09:00 +2°C° 0.2 mm 12 mps 752 mmHg 74%
    10:00 +1°C° 0.1 mm 13 mps 753 mmHg 70%
    11:00 +3°C° 0.1 mm 13 mps 753 mmHg 67%
    12:00 +3°C° 0.1 mm 14 mps 754 mmHg 63%
    13:00 +3°C° 0.1 mm 14 mps 755 mmHg 63%
    14:00 +1°C° 0.1 mm 13 mps 755 mmHg 64%
    15:00 +1°C° 0.1 mm 13 mps 756 mmHg 64%
    16:00 0°C° 0 mm 12 mps 756 mmHg 68%
    17:00 0°C° 0 mm 12 mps 757 mmHg 71%
    18:00 -1°C° 0 mm 11 mps 757 mmHg 74%
    19:00 -1°C° 0 mm 11 mps 758 mmHg 76%
    20:00 -1°C° 0 mm 11 mps 758 mmHg 78%
    21:00 -1°C° 0 mm 11 mps 758 mmHg 80%
    22:00 -1°C° 0 mm 11 mps 759 mmHg 80%
    23:00 0°C° 0 mm 10 mps 759 mmHg 81%

    Day after tomorrow, 23 February, Sunday

    Time Temperature Precipitation Wind Pressure Humidity
    00:00 0°C° 0 mm 10 mps 759 mmHg 82%
    01:00 0°C° 0 mm 9 mps 759 mmHg 83%
    02:00 0°C° 0 mm 9 mps 758 mmHg 85%
    03:00 0°C° 0 mm 8 mps 758 mmHg 87%
    04:00 0°C° 0.1 mm 7 mps 757 mmHg 89%
    05:00 +1°C° 0.1 mm 6 mps 756 mmHg 92%
    06:00 +1°C° 0.1 mm 5 mps 755 mmHg 94%
    07:00 +1°C° 0.4 mm 4 mps 754 mmHg 94%
    08:00 +2°C° 0.4 mm 3 mps 754 mmHg 94%
    09:00 +3°C° 0.4 mm 3 mps 753 mmHg 94%
    10:00 +2°C° 0 mm 5 mps 754 mmHg 90%
    11:00 +2°C° 0 mm 6 mps 755 mmHg 85%
    12:00 +2°C° 0 mm 8 mps 756 mmHg 81%
    13:00 +2°C° 0 mm 9 mps 757 mmHg 75%
    14:00 +2°C° 0 mm 9 mps 758 mmHg 70%
    15:00 +3°C° 0 mm 10 mps 759 mmHg 64%
    16:00 +2°C° 0 mm 9 mps 760 mmHg 67%
    17:00 +1°C° 0 mm 8 mps 761 mmHg 70%
    18:00 0°C° 0 mm 7 mps 762 mmHg 72%
    19:00 +1°C° 0 mm 6 mps 763 mmHg 75%
    20:00 0°C° 0 mm 5 mps 763 mmHg 79%
    21:00 0°C° 0 mm 4 mps 764 mmHg 82%
    22:00 0°C° 0 mm 4 mps 764 mmHg 83%
    23:00 +1°C° 0 mm 3 mps 764 mmHg 84%

    24 February, Monday

    Time Temperature Precipitation Wind Pressure Humidity
    00:00 +1°C° 0 mm 3 mps 764 mmHg 85%
    01:00 +1°C° 0 mm 3 mps 764 mmHg 84%
    02:00 +1°C° 0 mm 3 mps 763 mmHg 83%
    03:00 0°C° 0 mm 4 mps 762 mmHg 82%
    04:00 +1°C° 0 mm 5 mps 761 mmHg 81%
    05:00 0°C° 0 mm 7 mps 759 mmHg 79%
    06:00 0°C° 0 mm 9 mps 758 mmHg 78%
    07:00 +2°C° 0 mm 9 mps 756 mmHg 81%
    08:00 +3°C° 0 mm 9 mps 754 mmHg 84%
    09:00 +6°C° 0 mm 9 mps 753 mmHg 87%
    10:00 +7°C° 0.1 mm 10 mps 752 mmHg 85%
    11:00 +7°C° 0.1 mm 10 mps 750 mmHg 83%
    12:00 +8°C° 0.1 mm 10 mps 749 mmHg 81%
    13:00 +8°C° 0.6 mm 10 mps 748 mmHg 82%
    14:00 +7°C° 0.6 mm 10 mps 748 mmHg 83%
    15:00 +7°C° 0.6 mm 10 mps 747 mmHg 85%
    16:00 +6°C° 0.1 mm 11 mps 747 mmHg 83%
    17:00 +4°C° 0.1 mm 11 mps 747 mmHg 81%
    18:00 +3°C° 0.1 mm 11 mps 747 mmHg 79%
    19:00 +2°C° 0 mm 12 mps 747 mmHg 77%
    20:00 +1°C° 0 mm 13 mps 747 mmHg 76%
    21:00 0°C° 0 mm 13 mps 747 mmHg 74%
    22:00 0°C° 0 mm 14 mps 747 mmHg 74%
    23:00 0°C° 0 mm 15 mps 747 mmHg 73%

    25 February, Tuesday

    Time Temperature Precipitation Wind Pressure Humidity
    00:00 0°C° 0 mm 15 mps 747 mmHg 72%
    01:00 0°C° 0 mm 15 mps 747 mmHg 71%
    02:00 0°C° 0 mm 15 mps 746 mmHg 71%
    03:00 0°C° 0 mm 14 mps 746 mmHg 71%
    04:00 0°C° 0 mm 14 mps 746 mmHg 72%
    05:00 -1°C° 0 mm 13 mps 746 mmHg 74%
    06:00 -1°C° 0 mm 13 mps 746 mmHg 75%
    07:00 0°C° 0 mm 13 mps 747 mmHg 73%
    08:00 0°C° 0 mm 13 mps 747 mmHg 71%
    09:00 0°C° 0 mm 12 mps 747 mmHg 69%
    10:00 +2°C° 0 mm 12 mps 747 mmHg 67%
    11:00 +3°C° 0 mm 12 mps 747 mmHg 64%
    12:00 +3°C° 0 mm 12 mps 747 mmHg 62%
    13:00 +3°C° 0.1 mm 10 mps 746 mmHg 65%
    14:00 +3°C° 0.1 mm 9 mps 745 mmHg 67%
    15:00 +4°C° 0.1 mm 7 mps 745 mmHg 69%
    16:00 +3°C° 0 mm 7 mps 745 mmHg 71%
    17:00 +2°C° 0 mm 7 mps 744 mmHg 74%
    18:00 0°C° 0 mm 7 mps 744 mmHg 76%
    19:00 0°C° 0 mm 8 mps 745 mmHg 76%
    20:00 0°C° 0 mm 8 mps 745 mmHg 77%
    21:00 -1°C° 0 mm 8 mps 745 mmHg 77%
    22:00 -1°C° 0 mm 8 mps 745 mmHg 75%
    23:00 -1°C° 0 mm 8 mps 745 mmHg 74%

    26 February, Wednesday

    Time Temperature Precipitation Wind Pressure Humidity
    00:00 -1°C° 0 mm 8 mps 745 mmHg 73%
    01:00 -1°C° 0 mm 8 mps 745 mmHg 74%
    02:00 -2°C° 0 mm 8 mps 745 mmHg 75%
    03:00 -2°C° 0 mm 8 mps 745 mmHg 76%
    04:00 -2°C° 0 mm 8 mps 745 mmHg 74%
    05:00 -3°C° 0 mm 9 mps 745 mmHg 72%
    06:00 -3°C° 0 mm 9 mps 745 mmHg 69%
    07:00 -3°C° 0 mm 9 mps 745 mmHg 68%
    08:00 -1°C° 0 mm 9 mps 745 mmHg 67%
    09:00 -1°C° 0 mm 9 mps 745 mmHg 66%
    10:00 0°C° 0 mm 9 mps 745 mmHg 64%
    11:00 +1°C° 0 mm 8 mps 745 mmHg 63%
    12:00 +2°C° 0 mm 7 mps 744 mmHg 61%
    13:00 +2°C° 0.2 mm 8 mps 745 mmHg 61%
    14:00 +2°C° 0.2 mm 8 mps 745 mmHg 61%
    15:00 +2°C° 0.2 mm 8 mps 746 mmHg 61%
    16:00 +2°C° 0 mm 7 mps 746 mmHg 64%
    17:00 0°C° 0 mm 7 mps 747 mmHg 68%
    18:00 -1°C° 0 mm 7 mps 748 mmHg 72%
    19:00 -1°C° 0 mm 7 mps 748 mmHg 72%
    20:00 -1°C° 0 mm 7 mps 749 mmHg 72%
    21:00 -1°C° 0 mm 8 mps 750 mmHg 72%
    22:00 -1°C° 0 mm 7 mps 750 mmHg 73%
    23:00 -1°C° 0 mm 7 mps 751 mmHg 73%
    Show more